Flag for USA

Past Weather in 42°05'00"N, 91°42'43"W, USA — Yesterday and Last 2 Weeks

Now
43 °F

Sunny.


Feels Like: 39 °F
Forecast: 51 / 33 °F
Wind: 7 mph from East

Location: Cedar Rapids Municipal Airport

Current Time: Mar 31, 2020 at 11:50:14 am

Latest Report: Mar 31, 2020 at 10:52 am


Visibility: 10 mi

Pressure: 30.08 "Hg

Humidity: 68%

Dew Point: 33 °F

Location of 42°05'00"N, 91°42'43"WLocation

Past Weather in 42°05'00"N, 91°42'43"W — Graph

°F

42°05'00"N, 91°42'43"W Temperature Yesterday

Maximum temperature yesterday: 61 °F (at 3:52 pm)
Minimum temperature yesterday: 30 °F (at 4:52 am)
Average temperature yesterday: 46 °F

High & Low Weather Summary for the Past Weeks

 TemperatureHumidityPressure
High67 °F (Mar 28, 4:52 pm)100% (Mar 18, 8:52 am)30.58 "Hg (Mar 18, 8:52 am)
Low25 °F (Mar 17, 7:52 am)30% (Mar 30, 1:52 pm)29.31 "Hg (Mar 28, 6:52 pm)
Average41 °F86%29.98 "Hg
* Reported Mar 16 9:52 am — Mar 31 9:52 am, 42°05'00"N, 91°42'43"W. Weather by CustomWeather, © 2020

Note: Actual official high and low records may vary slightly from our data, if they occured in-between our weather recording intervals... More about our weather records

42°05'00"N, 91°42'43"W Weather History for the Previous 24 Hours

Scroll right to see more
 ConditionsComfort  
Time TempWeatherWind HumidityBarometerVisibility
9:52 am
Tue, Mar 31
42 °FSunny.8 mph71%30.08 "Hg10 mi
8:52 am39 °FSunny.13 mph79%30.09 "Hg10 mi
7:52 am37 °FSunny.12 mph86%30.10 "Hg10 mi
6:52 am36 °FSunny.14 mph89%30.09 "Hg10 mi
5:52 am38 °FClear.12 mph79%30.07 "Hg10 mi
4:52 am37 °FClear.8 mph79%30.06 "Hg10 mi
3:52 am39 °FClear.9 mph73%30.07 "Hg10 mi
2:52 am41 °FClear.7 mph65%30.08 "Hg10 mi
1:52 am43 °FClear.12 mph62%30.09 "Hg10 mi
12:52 am43 °FClear.8 mph62%30.10 "Hg10 mi
11:52 pm
Mon, Mar 30
44 °FClear.8 mph63%30.11 "Hg10 mi
10:52 pm44 °FClear.5 mph63%30.13 "Hg10 mi
9:52 pm49 °FClear.6 mph50%30.14 "Hg10 mi
8:52 pm51 °FClear.6 mph46%30.13 "Hg10 mi
7:52 pm52 °FClear.6 mph47%30.13 "Hg10 mi
6:52 pm57 °FSunny.7 mph42%30.12 "Hg10 mi
5:52 pm59 °FSunny.7 mph39%30.11 "Hg10 mi
4:52 pm61 °FSunny.12 mph36%30.11 "Hg10 mi
3:52 pm61 °FSunny.12 mph34%30.13 "Hg10 mi
2:52 pm60 °FSunny.8 mph32%30.17 "Hg10 mi
1:52 pm58 °FSunny.10 mph30%30.19 "Hg10 mi
12:52 pm56 °FSunny.14 mph34%30.21 "Hg10 mi
11:52 am55 °FSunny.10 mph42%30.23 "Hg10 mi
Weather by CustomWeather, © 2020

See weather overview

Advertising